STARLINK-32577, 62044

Orbit data source: Space-Track

STARLINK-32577, 62044 is a payload satellite owned by SpaceX/Seattle (US) in LEO that was launched on Thu, 21 Nov 2024 UTC via an FALCON 9 launch vehicle from the Air Force Eastern Test Range (AFETR). Payload-class satellites include a variety of spacecraft equipped with specific instruments for various scientific and technological missions. These include communications satellites like Starlink; space stations such as the ISS; scientific satellites like the Hubble; Earth observation satellites from companies like Planet Labs, Umbra, and HawkEye 360; GPS; miniature CubeSats for education and research; and military/defense satellites.

Loading next visibility...
Identifier
62044, 2024-216N
Orbit
LEO
Last TLE update
7 hours ago
Origin
Manufacturer
SpaceX/Seattle
Mission
Operational Commercial Communications
Bus & Motor
STARLINK V2M, Unknown motor
Mass
730 kg wet, ~700 kg dry
Launch date (UTC)
2024-11-21 (8 months ago)
Launch vehicle
FALCON 9
Launch site
Air Force Eastern Test Range (AFETR)
Object type
Payload
Rocket body
Debris
Shape & HBR
Box + 2 Pan, 14.5 m
Radar Cross Section
36.964 m², Large (>1 m²)

Expand to show TLE details & history

TLE from 7 hours ago
0 STARLINK-32577
1 62044U 24216N   25200.19459236  .00026415  00000-0  96582-3 0  9990
2 62044  42.9991 142.0662 0001167 261.2600  98.8120 15.27585885 38109
Epoch: 2025-07-19T04:40Z
TLE epoch observation values (Epoch: 2025-07-19T04:40:12.779Z)
Latitude
Longitude
134.77776°
Altitude
482.93 km
Speed
7.626 km/s
True Right ascension
09h 28m 15s
True Declination
0° 00' 00"
Sunlit
Object was in daylight at epoch
Visualization orbit readout
Latitude
42.98972°
Longitude
-142.98791°
Altitude
486.902 km
Speed
7.627 km/s
Apparent Right ascension
13h 34m 07s
Apparent Declination
3° 37' 50"
Sunlit
Object is in daylight
Visualization observer readout
Local Sidereal Time
00:08:43
Azimuth
330.609° NNW
Elevation
-42.244°
Doppler factor
1
Orbital elements
Apogee altitude
485.778 km
Perigee altitude
484.176 km
Semi-major axis
6,863.114 km
Eccentricity
0.00012
Inclination
42.9991°
RAAN
142.0662°
Arg. of periapsis
261.26°
True anomaly
98.82521°
Mean anomaly
98.812°
Eccentric anomaly
98.81861°
Mean motion
3.81734 °/min
Orbital period
94.31 mins
BSTAR
0.00096582
Loading maneuver chart data...
Loading SW <> Apogee altitude chart data...
Loading historical data...
Loading historical data...
Loading historical data...
Loading historical data...
Loading historical data...
Loading historical data...
Loading historical data...
|